This demonstration page uses our WeatherBlox Daily Observations layout. Learn more.

Left ArrowRight Arrow

34.16533, -84.80231

Hourly Observations for August 22, 2017

Temp ( °F °C ) Dew Point ( °F °C ) Humidity (%) Winds ( mph kmh ) Pressure ( in mb ) Visibility ( mi km ) Precip ( " mm )
12:53 am 00:53 Clear 73 22.8 73 22.8 100 100 Calm 30.13 1020 10 16 0.00 0.00
1:53 am 01:53 Mostly Clear 72 22.2 72 22.2 100 100 Calm 30.11 1020 10 16 0.00 0.00
2:53 am 02:53 Mostly Clear 72 22.2 72 22.2 100 100 Calm 30.10 1019 9 14 0.00 0.00
3:53 am 03:53 Clear 72 22.2 72 22.2 100 100 N 3 6 30.08 1019 9 14 0.00 0.00
4:53 am 04:53 Clear 72 22.2 72 22.2 100 100 N 3 6 30.07 1018 10 16 0.00 0.00
5:53 am 05:53 Clear 70 21.1 70 21.1 100 100 Calm 30.06 1018 8 13 0.00 0.00
6:53 am 06:53 Clear 70 21.1 70 21.1 100 100 Calm 30.08 1019 9 14 0.00 0.00
7:53 am 07:53 Sunny 71 21.7 71 21.7 100 100 Calm 30.09 1019 7 11 0.00 0.00
8:53 am 08:53 Sunny 76 24.4 74 23.3 94 94 SE 3 6 30.11 1020 10 16 0.00 0.00
9:53 am 09:53 Sunny 81 27.2 75 23.9 82 82 VRB 3 6 30.10 1019 10 16 0.00 0.00
10:53 am 10:53 Sunny 84 28.9 74 23.3 72 72 VRB 5 7 30.10 1019 10 16 0.00 0.00
11:53 am 11:53 Mostly Sunny 88 31.1 75 23.9 66 66 VRB 3 6 30.09 1019 10 16 0.00 0.00
12:53 pm 12:53 Mostly Sunny 89 31.7 71 21.7 55 55 VRB 5 7 30.08 1019 10 16 0.00 0.00
1:53 pm 13:53 Mostly Sunny 89 31.7 70 21.1 53 53 VRB 3 6 30.05 1018 10 16 0.00 0.00
2:53 pm 14:53 Cloudy 89 31.7 70 21.1 53 53 S 8 13 30.02 1017 10 16 0.00 0.00
3:53 pm 15:53 Mostly Cloudy 92 33.3 69 20.6 47 47 SSW 8 13 29.99 1016 10 16 0.00 0.00
4:53 pm 16:53 Mostly Sunny 91 32.8 69 20.6 49 49 S 7 11 29.97 1015 10 16 0.00 0.00
5:53 pm 17:53 Sunny 90 32.2 71 21.7 54 54 VRB 5 7 29.96 1015 10 16 0.00 0.00
6:53 pm 18:53 Sunny 89 31.7 71 21.7 55 55 SSW 6 9 29.95 1014 10 16 0.00 0.00
7:53 pm 19:53 Sunny 85 29.4 73 22.8 68 68 SSW 3 6 29.96 1014 10 16 0.00 0.00
8:53 pm 20:53 Clear 80 26.7 74 23.3 82 82 S 3 6 29.96 1014 10 16 0.00 0.00
9:53 pm 21:53 Clear 80 26.7 73 22.8 79 79 Calm 29.96 1015 10 16 0.00 0.00
10:53 pm 22:53 Clear 78 25.6 73 22.8 85 85 Calm 29.98 1015 10 16 0.00 0.00
11:53 pm 23:53 Clear 75 23.9 74 23.3 96 96 Calm 29.98 1015 10 16 0.00 0.00

Powered by AerisWeather